Home > Weather > Belgrade > Past weeks

Flag for Serbia Weather for the Past 2 Weeks in Belgrade, Serbia

Now
63 °F

Sunny.


Feels Like: 63 °F
Forecast: 40 / 55 °F
Wind: 8 mph from South

Location: Belgrade Surcin Airport

Current Time: Feb 9, 2016 at 11:31:48 AM

Latest Report: Feb 9, 2016 at 11:00 AM


Visibility: 10 mi

Pressure: 30.01 "Hg

Humidity: 45%

Dew point: 41 °F

Location of BelgradeLocation

Historic Weather in Belgrade — Graph

°F

Belgrade Temperature Yesterday

Maximum temperature yesterday: 61 °F (at 2:30 PM)
Minimum temperature yesterday: 37 °F (at 2:30 AM)
Average temperature yesterday: 49 °F

High & Low Weather Summary for the Past Weeks

 TemperatureHumidityPressure
High61 °F (Jan 28, 2:00 PM)100% (Jan 26, 2:00 AM)30.51 "Hg (Jan 26, 2:00 AM)
Low30 °F (Jan 27, 8:00 AM)38% (Feb 7, 1:00 PM)29.83 "Hg (Feb 3, 7:30 PM)
Average44 °F80%30.22 "Hg
* Reported Jan 25 10:00 AM — Feb 9 10:00 AM, Belgrade, Weather by CustomWeather, © 2016

Note: Actual official high and low records may vary slightly from our data, if they occured in-between our weather recording intervals... More about our weather records

Advertising

Belgrade Weather History for the Previous 24 Hours

 ConditionsComfort  
Time TempWeatherWind HumidityBarometerVisibility
10:00 AM
Tue, Feb 9
59 °FSunny.10 mph51%30.01 "Hg10 mi
9:00 AM55 °FSunny.10 mph55%30.01 "Hg10 mi
8:30 AM54 °FSunny.9 mph58%30.01 "Hg10 mi
8:00 AM52 °FSunny.9 mph58%30.01 "Hg10 mi
7:00 AM52 °FSunny.8 mph58%30.01 "Hg10 mi
6:30 AM50 °FClear.8 mph62%29.98 "Hg10 mi
6:00 AM52 °FClear.9 mph58%29.98 "Hg10 mi
5:30 AM52 °FClear.10 mph58%29.98 "Hg10 mi
5:00 AM52 °FClear.10 mph58%29.98 "Hg10 mi
4:30 AM52 °FClear.9 mph58%29.98 "Hg10 mi
4:00 AM52 °FClear.10 mph58%29.98 "Hg10 mi
3:30 AM52 °FClear.10 mph58%29.98 "Hg10 mi
3:00 AM52 °FClear.9 mph58%29.98 "Hg10 mi
2:30 AM52 °FClear.9 mph58%30.01 "Hg10 mi
2:00 AM52 °FClear.8 mph58%30.01 "Hg10 mi
1:30 AM52 °FClear.7 mph58%30.01 "Hg10 mi
1:00 AM50 °FClear.8 mph62%30.01 "Hg10 mi
12:30 AM48 °FClear.6 mph66%30.04 "Hg10 mi
12:00 AM52 °FClear.8 mph54%30.04 "Hg10 mi
11:30 PM
Mon, Feb 8
52 °FClear.8 mph54%30.04 "Hg10 mi
11:00 PM52 °FClear.8 mph54%30.04 "Hg10 mi
10:30 PM50 °FClear.7 mph58%30.04 "Hg10 mi
10:00 PM52 °FClear.8 mph54%30.04 "Hg10 mi
9:30 PM50 °FClear.8 mph62%30.04 "Hg10 mi
9:00 PM50 °FClear.9 mph58%30.04 "Hg10 mi
8:30 PM50 °FClear.9 mph62%30.01 "Hg10 mi
8:00 PM50 °FClear.12 mph58%30.01 "Hg10 mi
7:30 PM50 °FClear.12 mph58%30.01 "Hg10 mi
7:00 PM50 °FClear.12 mph58%30.01 "Hg10 mi
6:30 PM52 °FClear.13 mph58%30.01 "Hg10 mi
6:00 PM52 °FClear.15 mph58%30.01 "Hg10 mi
5:30 PM54 °FClear.14 mph54%30.01 "Hg10 mi
5:00 PM54 °FClear.13 mph54%30.01 "Hg10 mi
4:30 PM55 °FSunny.12 mph51%30.01 "Hg10 mi
4:00 PM59 °FSunny.12 mph45%30.01 "Hg10 mi
3:30 PM59 °FSunny.12 mph45%30.01 "Hg10 mi
3:00 PM61 °FSunny.9 mph42%30.04 "Hg10 mi
2:30 PM61 °FSunny.9 mph42%30.04 "Hg10 mi
2:00 PM59 °FSunny.9 mph45%30.04 "Hg10 mi
1:30 PM59 °FSunny.8 mph42%30.04 "Hg10 mi
1:00 PM59 °FPassing clouds.7 mph42%30.04 "HgN/A
12:30 PM57 °FPassing clouds.8 mph41%30.07 "HgN/A
12:00 PM57 °FSunny.9 mph44%30.07 "Hg10 mi
11:30 AM57 °FSunny.8 mph41%30.09 "Hg10 mi
11:00 AM57 °FPassing clouds.12 mph41%30.09 "HgN/A
Weather by CustomWeather, © 2016

See weather overviewHow to use our weather pages